User: anonymous   Login
Location: Unspecified
(0.0000°N, 0.0000°E)
Time: 07:31:56
(UTC+00:00)
Language:

OBJECT G - Orbit

View from above orbital plane
View from above orbital plane
View from above satellite
View from above satellite

Ground track
Ground track

The orbit data is extracted from the following two-line orbital elements,

1 41789U 16059G   17148.87625998 +.00000431 +00000-0 +91057-4 0  9999
2 41789 098.1682 210.9102 0027904 212.4915 147.4542 14.64044299035789
Epoch (UTC): 28 May 2017 21:01:48
Eccentricity: 0.0027904
inclination: 98.1682°
perigee height: 660 km
apogee height: 700 km
right ascension of ascending node: 210.9102°
argument of perigee: 212.4915°
revolutions per day: 14.64044299
mean anomaly at epoch: 147.4542°
orbit number at epoch: 3578

The dashed part of the orbit path shows where the satellite is in the earth's shadow,  

DLR